sat.trackr.live / text

‹ back to catalog

UNKNOWN

NORAD 81614

UNKNOWN UNKNOWN UNKNOWN

§ Identity

Operator
Country
Launch date
Launch site
Launch vehicle
Mass (kg)
RCS (m²)

External: N2YO · Heavens-Above

§ Orbital elements

Epoch: 2026-05-23T22:33:18.878112Z

Period
116.23 min
Inclination
101.8524°
Eccentricity
0.0339450
Mean motion
12.38906070 rev/d
Perigee alt
1,243.4 km
Apogee alt
1,779.0 km
Semi-major
7,889.4 km
B*
2.1835e-2
RAAN
140.1541°
Arg perigee
194.0549°
Mean anomaly
165.0879°
Rev number
55,805

§ Raw data

UNKNOWN1 81614U          26143.93980183  .00003466  00000+0  21835-1 0  99952 81614 101.8524 140.1541 0339450 194.0549 165.0879 12.38906070558050

JSON: /api/v1/satellites/81614 · /tle

For live sub-satellite position, see the globe view (requires WebGL).

§ Visibility from observer

Set your observer location to see the next 7 days of passes ≥ 10°. The values pass through the URL so the page stays shareable.

No JS? Fill the form by hand. The geolocation button needs JavaScript.